User: anonymous   Login
Location: Festilli
(46.4000°N, 11.6667°E)
Time: 18:00:12
(UTC+00:00)
Language:

Cosmos 1515 - Orbit

View from above orbital plane
View from above orbital plane
View from above satellite
View from above satellite

Ground track
Ground track

The orbit data is extracted from the following two-line orbital elements,

1 14551U 83122A   21129.28676491  .00000607  00000-0  27664-4 0  9992
2 14551  82.5012 205.8586 0007967  42.2051  20.0979 15.18698023785283
Epoch (UTC): 09 May 2021 06:52:56
Eccentricity: 0.0007967
inclination: 82.5012°
perigee height: 504 km
apogee height: 515 km
right ascension of ascending node: 205.8586°
argument of perigee: 42.2051°
revolutions per day: 15.18698023
mean anomaly at epoch: 20.0979°
orbit number at epoch: 78528

The dashed part of the orbit path shows where the satellite is in the earth's shadow,  

DLR